Location: Campillo
(40.8621°N, 4.2488°W)
Time: 22:00:24
(UTC+00:00)

USA 245 - Pass Details

Date: 26 September 2021
Orbit: 268 x 1012 km, 97.9° (Epoch: 15 October)

Event Time Altitude Azimuth Distance (km) Brightness Sun altitude
Exits shadow 21:28:56 13° 351° (N) 1,919 6.5 -36.8°
Drops below altitude 10° 21:29:30 10° 350° (N) 2,154 6.8 -36.9°
Sets 21:32:03 0° 349° (N) 3,210 7.8 -37.3°
